Tracking 32964 objects as of 20-Jan-2026
HD Live streaming from Space Station
objects crossing your sky now

THOR ABLESTAR DEB

Track THOR ABLESTAR DEB now!
10-day predictions


NORAD ID: 48811
Int'l Code: 1961-015MP
Perigee: 892.3 km
Apogee: 1,051.3 km
Inclination: 67.1 °
Period: 104.4 minutes
Semi major axis: 7342 km
RCS: Unknown
Launch date: June 29, 1961
Source: United States (US)
Launch site: AIR FORCE EASTERN TEST RANGE (AFETR)

Note: This is SATELLITE DEBRIS
Your satellite tracking list
Your tracking list is empty




NASA's NSSDC Master Catalog

Two Line Element Set (TLE):
1 48811U 61015MP  26017.66388462  .00000156  00000-0  21181-3 0  9992
2 48811  67.0619 350.9585 0108283 257.2281 101.6675 13.79778908611864
Source of the keplerian elements: AFSPC